Terminal Aerodrome Forecast
Issued by NWS Sterling, VA

Current Version | Previous Version | Graphics & Text | Print | Product List | Glossary On
Versions: 1 2 3 4 5 6 7 8 9 10 11 12 13 14 15 16 17 18 19 20 21 22 23 24 25 26 27
098
FTUS41 KLWX 230520
TAFIAD
TAF
KIAD 230520Z 2306/2412 VRB03KT P6SM FEW250
     FM232000 28007KT P6SM SCT060
     FM232300 30006KT P6SM BKN060
     FM240200 31004KT P6SM SCT060=

USA.gov is the U.S. government's official web portal to all federal, state and local government web resources and services.